Location: Boiro
(42.6475°N, 8.8834°W)
Time: 09:01:26
(UTC+01:00)

SR - Pass Details

Date: 03 December 2021
Orbit: 583 x 872 km, 66.7° (Epoch: 16 January)

Event Time Altitude Azimuth Distance (km) Brightness Sun altitude
Rises 08:21:02 0° 344° (NNW) 2,816 ? -5.2°
Reaches altitude 10° 08:24:22 10° 12° (NNE) 1,929 ? -4.7°
Maximum altitude 08:26:30 13° 42° (NE) 1,733 ? -4.3°
Drops below altitude 10° 08:28:39 10° 71° (ENE) 1,967 ? -4.0°
Sets 08:32:07 0° 99° (E) 2,920 ? -3.4°
